Cartersville, GA

8:41 PM EDT on March 30, 2017 (GMT -0400)
Cartersville

Weather History for KVPC - January, 2013

Change the Weather History Date:

Wednesday, January 16, 2013

  Actual Average Record
Temperature  
Mean Temperature 50 °F 41 °F  
Max Temperature 53 °F 52 °F 70 °F (2017)
Min Temperature 48 °F 30 °F 10 °F (2009)
Degree Days  
Heating Degree Days 14 24  
Month to date heating degree days 384  
Since 1 July heating degree days 1686  
Moisture  
Dew Point 50 °F    
Average Humidity 99    
Maximum Humidity 100    
Minimum Humidity 93    
Precipitation  
Precipitation 0.53 in 0.16 in 3.17 in (1954)
Month to date precipitation 2.05  
Year to date precipitation 2.05  
Snow  
Snow 0.00 in - - ()
Month to date snowfall  
Since 1 July snowfall  
Snow Depth -    
Sea Level Pressure  
Sea Level Pressure 29.98 in    
Wind  
Wind Speed 0 mph (North)    
Max Wind Speed 5 mph    
Max Gust Speed -    
Visibility 6 miles    
Events Rain    
T = Trace of Precipitation, MM = Missing Value Source: NWS Daily Summary

Daily Weather History Graph

Daily Weather History Graph

Search for Another Location

Airport or City:

Trip Planner

Search our weather history database for the weather conditions in past years. The results will help you decide how hot, cold, wet, or windy it might be!

Date:

Astronomy

Jan. 16, 2013 Rise Set
Actual Time 7:44 AM EST 5:54 PM EST
Civil Twilight 7:17 AM EST 6:21 PM EST
Nautical Twilight 6:46 AM EST 6:52 PM EST
Astronomical Twilight 6:16 AM EST 7:22 PM EST
Moon 10:37 AM EST (1/16) 11:26 PM EST (1/16)
Length of Visible Light 11h 03m
Length of Day
10h 09m
Waxing Crescent, 28% of the Moon is Illuminated
Jan 16
Waxing Crescent
Jan 18
First Quarter
Jan 26
Full
Feb 3
Last Quarter
Feb 10
New

Hourly Weather History & Observations

Time (EST) Temp. Dew Point Humidity Pressure Visibility Wind Dir Wind Speed Gust Speed Precip Events Conditions
12:09 AM 48.2 °F 48.2 °F 100% 29.98 in 2.0 mi Calm Calm - N/A   Overcast
12:35 AM 48.2 °F 48.2 °F 100% 29.98 in 1.2 mi Calm Calm - N/A   Overcast
12:53 AM 48.0 °F 48.0 °F 100% 29.96 in 1.2 mi Calm Calm - N/A   Overcast
1:17 AM 48.2 °F 48.2 °F 100% 29.96 in 0.8 mi Calm Calm - N/A   Mist
1:53 AM 48.9 °F 48.9 °F 100% 29.94 in 0.8 mi Calm Calm - N/A   Mist
2:53 AM 48.9 °F 48.9 °F 100% 29.93 in 0.8 mi Calm Calm - 0.01 in Rain Light Rain
3:03 AM 48.2 °F 48.2 °F 100% 29.93 in 1.0 mi Calm Calm - 0.01 in Rain Light Rain
3:15 AM 48.2 °F 48.2 °F 100% 29.93 in 1.8 mi Calm Calm - 0.04 in Rain Light Rain
3:23 AM 50.0 °F 50.0 °F 100% 29.93 in 2.5 mi Calm Calm - 0.05 in Rain Light Rain
3:38 AM 48.2 °F 48.2 °F 100% 29.95 in 2.5 mi Calm Calm - 0.08 in Rain Light Rain
3:45 AM 48.2 °F 48.2 °F 100% 29.96 in 3.0 mi Variable 3.5 mph - 0.10 in Rain Light Rain
3:53 AM 48.9 °F 48.9 °F 100% 29.93 in 1.8 mi Calm Calm - 0.14 in Rain Heavy Rain
3:58 AM 48.2 °F 48.2 °F 100% 29.94 in 2.0 mi Calm Calm - 0.02 in Rain Rain
4:28 AM 48.2 °F 48.2 °F 100% 29.93 in 3.0 mi Calm Calm - 0.14 in Rain Light Rain
4:51 AM 50.0 °F 50.0 °F 100% 29.94 in 10.0 mi Calm Calm - 0.14 in   Overcast
4:52 AM 50.0 °F 50.0 °F 100% 29.92 in 9.0 mi Calm Calm - 0.14 in   Overcast
5:00 AM 50.0 °F 50.0 °F 100% 29.94 in 6.0 mi Calm Calm - 0.00 in Rain Light Rain
5:53 AM 50.0 °F 50.0 °F 100% 29.94 in 10.0 mi Calm Calm - 0.00 in   Overcast
6:37 AM 50.0 °F 50.0 °F 100% 29.97 in 7.0 mi Calm Calm - N/A   Overcast
7:53 AM 50.0 °F 50.0 °F 100% 30.00 in 7.0 mi Calm Calm - 0.01 in   Overcast
8:04 AM 50.0 °F 48.2 °F 94% 30.00 in 10.0 mi Calm Calm - N/A   Overcast
8:41 AM 50.0 °F 48.2 °F 94% 30.01 in 10.0 mi Calm Calm - N/A   Overcast
8:53 AM 50.0 °F 50.0 °F 100% 30.00 in 10.0 mi Calm Calm - N/A   Overcast
9:53 AM 51.1 °F 51.1 °F 100% 30.02 in 10.0 mi Calm Calm - N/A   Overcast
10:00 AM 51.8 °F 51.8 °F 100% 30.03 in 10.0 mi Calm Calm - N/A   Overcast
10:53 AM 53.1 °F 51.1 °F 93% 30.01 in 10.0 mi Calm Calm - N/A   Overcast
11:53 AM 53.1 °F 52.0 °F 96% 30.01 in 3.0 mi Calm Calm - 0.00 in Rain Light Rain
12:26 PM 53.6 °F 53.6 °F 100% 30.02 in 2.0 mi Calm Calm - 0.03 in Rain Light Rain
12:37 PM 53.6 °F 53.6 °F 100% 30.02 in 2.5 mi Calm Calm - 0.03 in Rain Light Rain
12:53 PM 53.1 °F 52.0 °F 96% 30.00 in 2.5 mi Calm Calm - 0.04 in Rain Light Rain
1:02 PM 53.6 °F 53.6 °F 100% 30.01 in 3.0 mi Calm Calm - 0.00 in   Overcast
1:20 PM 51.8 °F 51.8 °F 100% 30.01 in 2.5 mi NNW 3.5 mph - 0.01 in Rain Light Rain
1:28 PM 51.8 °F 51.8 °F 100% 30.02 in 4.0 mi Variable 4.6 mph - 0.01 in Rain Light Rain
1:53 PM 52.0 °F 51.1 °F 97% 30.00 in 4.0 mi Calm Calm - 0.01 in   Overcast
2:53 PM 52.0 °F 52.0 °F 100% 29.97 in 10.0 mi Calm Calm - 0.01 in   Overcast
3:53 PM 53.1 °F 51.1 °F 93% 29.96 in 10.0 mi Calm Calm - N/A   Overcast
4:01 PM 53.6 °F 51.8 °F 94% 29.98 in 10.0 mi SE 3.5 mph - N/A   Overcast
4:53 PM 53.1 °F 53.1 °F 100% 29.99 in 10.0 mi Calm Calm - N/A   Overcast
5:53 PM 52.0 °F 52.0 °F 100% 29.99 in 8.0 mi NNW 4.6 mph - 0.01 in Rain Light Rain
6:19 PM 51.8 °F 51.8 °F 100% 30.02 in 9.0 mi Calm Calm - 0.00 in Rain Light Rain
6:53 PM 52.0 °F 52.0 °F 100% 30.01 in 5.0 mi Calm Calm - 0.06 in Rain Light Rain
7:33 PM 51.8 °F 51.8 °F 100% 30.03 in 5.0 mi North 3.5 mph - 0.03 in Rain Light Rain
7:53 PM 51.1 °F 51.1 °F 100% 30.02 in 6.0 mi Calm Calm - 0.05 in Rain Light Rain
8:03 PM 51.8 °F 51.8 °F 100% 30.03 in 8.0 mi Calm Calm - 0.00 in   Overcast
8:53 PM 51.1 °F 50.0 °F 96% 30.01 in 9.0 mi North 3.5 mph - 0.03 in Rain Light Rain
9:53 PM 50.0 °F 50.0 °F 100% 30.00 in 10.0 mi Calm Calm - 0.00 in   Overcast
10:53 PM 50.0 °F 48.0 °F 93% 29.99 in 10.0 mi Calm Calm - N/A   Overcast
11:53 PM 48.0 °F 46.9 °F 96% 29.98 in 9.0 mi North 4.6 mph - 0.02 in Rain Light Rain